Theta_e
310 311 312 312 310 311 311 312 313 312 312 312 311 310 311 309 305 305 304 303 304 303 304 303 304 305 306 307 311 313 312 314 315 317 317 318 319 319 321 322 323 323 322 321
311 311 312 311 311 311 313 313 312 311 311 311 311 311 309 308 307 306 307 307 306 304 299 300 302 304 305 308 311 312 310 313 314 316 314 316 316 315 317 317 318 318 317 317
313 314 311 312 312 312 311 311 312 313 312 309 309 310 310 309 308 307 306 308 307 306 302 299 300 303 305 307 311 311 310 312 312 311 312 312 310 308 308 308 312 312 312 312
312 311 313 312 313 312 314 310 312 313 314 315 311 317 313 311 310 308 309 309 307 304 301 300 301 301 303 306 310 311 310 310 310 312 311 312 308 302 302 305 307 306 305 305
313 313 313 314 313 312 313 311 312 313 313 312 312 313 314 311 311 311 311 310 307 303 302 300 301 302 302 306 310 310 309 309 310 309 310 306 302 302 301 301 302 300 297 298
311 310 311 313 312 311 310 312 311 310 310 315 312 314 315 312 312 312 311 310 306 302 299 299 301 302 302 306 308 308 307 307 307 307 305 304 304 301 298 296 295 292 291 290
313 312 310 310 312 311 312 314 317 316 314 318 311 312 316 313 311 310 310 310 307 300 298 297 299 300 301 304 307 306 305 303 305 304 303 302 302 301 300 298 295 290 288 288
316 317 312 309 312 314 311 312 316 316 316 316 312 317 316 309 309 307 306 306 303 299 297 298 299 300 301 303 304 304 303 302 303 303 302 300 301 297 295 295 294 290 288 288
315 316 310 309 310 312 311 314 312 315 300 309 314 312 311 309 309 308 308 304 302 299 297 297 298 300 300 303 303 303 301 301 301 302 302 300 298 295 293 290 290 288 288 287
314 317 310 310 310 310 311 310 315 312 314 315 315 314 317 315 313 310 309 308 303 299 296 296 297 298 299 301 302 302 301 300 300 300 301 299 297 294 292 289 289 288 287 286
312 314 312 310 311 312 311 312 312 313 311 313 314 318 310 313 312 312 310 307 303 299 296 295 295 297 298 299 300 300 300 299 297 298 298 296 294 292 291 290 288 287 286 286
311 314 310 312 309 308 311 312 312 316 314 313 313 319 310 310 310 308 307 305 302 298 295 293 294 295 295 296 297 298 298 298 298 297 295 294 293 291 289 288 287 286 286 285
313 315 317 318 316 311 311 311 313 314 312 317 315 319 305 307 308 307 307 305 300 297 294 292 291 292 293 293 294 294 295 295 296 295 293 292 291 290 289 288 287 286 286 285
314 313 316 323 319 314 313 311 311 315 318 318 318 319 316 310 308 308 306 303 299 297 294 293 291 292 293 292 293 293 293 294 295 293 292 291 290 289 288 288 287 285 285 285
316 317 313 314 313 313 313 313 312 314 315 319 319 317 317 315 310 312 311 303 300 298 295 294 293 292 292 292 291 291 292 293 293 292 291 290 290 288 287 287 286 285 284 284
316 320 316 320 315 313 317 313 312 313 315 315 316 317 316 312 311 310 308 307 304 300 298 296 294 292 291 292 291 291 290 290 290 289 289 289 288 287 287 286 285 285 284 284
316 319 319 322 316 315 318 317 316 313 312 314 316 315 314 313 310 310 310 307 304 302 300 298 295 293 292 292 291 290 290 289 289 289 288 288 288 287 286 285 285 284 284 283
313 315 317 322 319 323 319 311 314 316 316 313 311 312 313 312 310 309 307 307 306 303 300 299 296 294 293 292 291 290 289 289 289 288 288 287 287 287 286 285 285 284 284 283
308 311 316 320 322 317 315 307 309 313 316 314 315 314 314 313 307 311 303 303 305 304 302 300 299 296 293 291 291 290 289 288 288 288 287 287 287 286 285 285 284 284 283 283
309 309 313 314 317 320 309 303 304 309 317 300 310 312 312 306 308 313 303 298 298 296 297 298 298 296 293 291 290 288 287 287 287 287 287 287 287 286 285 285 284 284 284 284
306 309 311 314 317 313 308 301 302 315 311 293 296 299 300 306 307 299 295 297 294 294 295 296 295 293 291 290 289 287 287 287 287 288 287 287 286 286 286 285 285 284 285 283
309 311 311 312 314 314 301 300 310 305 295 294 296 299 298 299 298 297 295 295 293 294 293 292 291 291 290 290 289 287 286 287 287 287 287 286 286 286 285 285 286 286 284 283
309 307 306 309 311 302 298 302 296 294 296 294 296 297 297 297 297 295 293 293 292 288 290 292 291 289 289 289 289 288 288 288 288 288 288 288 287 287 288 289 286 284 284 284
300 299 307 307 305 302 298 294 294 292 293 291 291 293 294 295 293 292 288 290 290 286 289 290 290 288 288 289 290 291 290 290 290 290 288 287 287 287 286 286 286 285 284 284
300 300 303 302 301 298 297 296 295 295 291 290 290 292 294 293 289 289 288 286 287 286 287 288 289 287 286 289 290 291 292 292 290 288 287 286 286 285 285 285 285 285 285 284
296 300 304 305 302 303 302 298 293 294 293 290 290 289 289 290 290 287 285 285 285 284 286 286 286 285 285 287 287 288 287 287 287 286 285 285 285 284 284 283 280 280 280 279
Wind_Speed
1 3 8 15 9 3 4 4 6 4 2 3 8 9 15 8 7 10 11 12 15 17 17 24 29 26 23 21 21 21 21 22 24 26 26 25 25 23 22 22 21 20 20 21
3 8 14 4 5 4 2 4 7 5 5 6 10 13 12 9 9 10 17 18 17 13 8 18 29 29 28 27 26 25 25 26 27 29 28 28 28 25 25 23 22 21 21 21
8 5 6 9 5 5 7 8 5 8 4 4 5 8 10 9 9 10 11 17 16 20 16 12 21 32 32 32 31 29 28 28 29 30 29 28 27 27 24 25 26 23 23 23
7 3 5 4 5 9 8 8 5 5 2 5 1 8 7 6 11 8 17 16 20 11 9 13 22 27 35 35 31 30 30 31 32 31 33 37 33 26 26 31 28 26 23 24
8 7 6 6 7 9 6 4 6 2 3 3 3 5 6 5 8 14 17 18 13 12 15 17 22 32 30 35 35 32 30 32 33 34 34 35 28 26 33 31 31 28 27 28
4 2 7 8 3 7 6 4 5 4 2 6 11 10 5 6 8 6 11 13 10 8 8 8 18 23 26 32 33 29 31 33 34 34 35 35 36 34 37 35 34 33 32 32
1 6 4 4 5 2 4 6 2 4 1 8 4 5 13 8 8 9 11 13 2 4 8 9 12 20 25 31 31 29 33 32 35 35 36 37 37 38 43 43 41 39 37 35
9 6 12 8 11 8 8 8 6 7 4 5 1 8 6 10 11 7 10 5 4 6 8 10 12 20 24 29 31 32 35 34 37 36 37 37 35 38 38 42 44 44 43 39
7 6 1 1 3 10 6 8 4 3 2 2 5 8 8 10 11 12 13 3 5 7 7 8 10 17 24 30 31 35 37 35 37 37 36 36 36 39 39 40 44 44 41 38
5 2 1 2 4 3 5 7 2 1 2 5 5 6 10 5 8 8 10 9 6 7 6 6 8 17 23 29 29 30 34 36 37 37 37 37 38 39 40 42 44 42 40 39
5 4 0 2 5 11 3 4 2 4 5 5 3 8 7 6 7 7 7 5 5 7 6 7 8 15 21 27 31 34 33 33 33 36 36 36 38 40 41 43 42 43 42 39
7 4 4 9 2 3 1 8 7 5 6 4 3 15 5 4 1 4 7 6 2 4 6 7 10 17 21 25 31 36 36 35 36 36 36 37 38 41 42 45 43 42 41 38
9 4 1 3 2 1 6 8 17 3 3 15 5 11 2 1 5 5 6 1 3 6 7 7 8 14 19 24 28 31 34 37 39 38 37 37 40 43 44 45 44 43 42 40
5 5 9 12 5 6 7 10 12 16 8 9 19 28 18 2 4 6 6 5 6 7 8 8 8 12 21 27 30 31 31 34 38 38 38 39 40 44 45 44 44 44 42 40
8 7 5 5 3 4 4 7 16 19 30 14 31 19 31 17 11 14 7 7 8 7 8 11 13 13 19 22 24 28 33 39 40 38 39 41 42 43 43 44 44 43 41 39
9 7 6 17 12 8 7 7 18 24 26 21 29 25 32 7 7 5 9 9 6 8 11 12 11 10 19 24 27 28 31 34 37 35 36 36 41 43 42 42 42 42 39 38
9 10 11 23 9 6 6 31 16 13 18 20 22 35 33 13 7 9 14 5 9 12 11 10 15 17 24 29 30 31 31 33 37 34 33 38 40 40 40 39 39 39 39 37
6 3 2 8 4 14 15 1 14 20 23 19 16 24 24 14 11 13 4 7 11 9 10 12 11 18 26 26 29 28 31 34 34 32 36 38 40 40 40 39 41 40 40 38
4 5 5 6 10 5 7 6 9 10 19 23 23 25 28 26 4 22 10 10 12 11 11 13 20 21 25 30 31 34 33 33 32 34 38 39 39 38 39 40 41 41 39 37
14 10 6 4 5 7 6 3 4 7 11 5 16 23 23 4 2 12 3 6 8 8 12 11 14 20 25 27 32 31 28 28 30 29 28 33 39 40 40 40 40 39 37 35
5 6 16 13 9 4 4 5 3 6 7 3 5 4 6 6 6 1 6 5 5 6 8 4 15 21 23 27 31 26 26 27 26 28 30 33 36 37 37 37 36 35 33 34
10 10 5 7 7 8 8 3 9 4 0 4 3 1 3 6 7 5 6 5 5 4 4 7 13 15 19 25 28 23 21 19 22 25 25 24 25 25 27 28 26 28 32 31
4 6 5 9 6 2 6 3 4 4 4 4 4 4 4 4 4 4 4 5 4 4 4 10 17 17 17 22 24 21 23 22 23 23 23 25 26 27 28 29 29 29 30 29
4 5 3 1 5 7 6 4 4 6 6 6 5 5 3 2 3 3 1 1 1 3 2 8 16 15 15 20 20 17 22 22 23 23 25 26 28 28 28 28 27 27 28 28
3 4 6 4 6 4 7 9 6 6 4 4 3 4 4 4 3 3 1 1 1 3 4 9 12 14 13 13 12 10 13 18 22 23 23 24 24 27 27 28 28 28 26 26
5 6 5 4 5 1 6 3 7 9 8 8 6 3 3 3 3 3 2 3 4 7 8 13 16 19 15 14 12 12 14 17 20 20 20 22 23 24 24 22 16 13 12 12
Wind_Direction
11 127 205 214 202 142 150 204 246 236 261 164 234 247 259 247 231 241 238 238 234 231 234 218 212 207 204 205 202 198 191 191 196 185 175 168 165 166 165 169 173 177 175 175
73 227 220 144 174 204 245 248 260 290 231 186 265 259 255 236 238 220 230 238 234 229 196 194 202 202 202 202 201 197 193 194 194 191 180 177 168 165 164 164 166 169 168 170
182 209 163 167 164 176 229 217 241 233 326 235 303 272 250 251 249 249 247 242 240 226 211 187 187 197 203 204 200 194 190 194 190 188 181 175 163 157 153 156 157 162 168 167
243 258 142 173 195 170 246 208 205 255 17 257 51 285 237 241 250 237 253 242 241 224 195 190 189 194 199 202 198 195 190 188 191 193 187 178 167 158 163 160 158 159 165 163
234 178 175 188 197 170 237 147 180 188 201 335 206 272 258 202 248 249 250 253 241 212 198 193 195 198 194 196 196 194 187 191 195 191 190 178 168 173 166 161 157 159 160 159
236 183 168 199 138 163 139 84 56 52 54 266 201 211 190 191 214 247 254 258 243 218 199 195 193 185 181 193 191 184 184 190 196 196 193 185 185 174 163 161 158 158 158 157
142 218 189 148 100 46 138 102 314 321 344 248 356 249 255 287 237 222 248 270 251 176 175 172 168 174 173 179 179 181 186 186 196 195 194 194 191 181 174 169 167 162 161 161
187 277 172 187 188 180 197 161 164 215 218 277 356 244 249 228 262 279 264 286 148 202 198 193 183 181 176 175 178 181 185 185 193 197 197 197 194 182 179 175 173 170 168 164
176 261 129 128 124 154 198 209 169 79 92 358 224 284 282 260 286 279 266 100 193 232 209 184 176 179 175 178 183 185 185 188 191 195 196 197 195 189 184 179 174 172 169 164
214 253 27 155 107 39 166 163 95 8 216 257 272 268 237 264 250 257 281 290 239 226 185 172 174 175 179 181 185 191 191 192 193 196 198 198 197 194 191 183 177 174 170 168
161 140 293 112 210 169 147 181 144 136 158 189 299 263 213 211 226 245 266 299 274 236 188 169 168 182 185 187 188 192 192 194 193 199 199 198 197 196 192 186 181 177 175 173
205 136 172 202 258 259 291 196 155 162 214 237 155 265 162 183 103 299 290 319 310 202 182 172 168 176 187 193 193 190 192 197 202 199 198 198 198 195 191 188 184 181 179 177
167 194 116 316 20 338 213 207 203 135 87 223 159 261 37 287 262 241 255 93 189 209 173 175 169 183 189 195 197 197 196 196 198 199 200 198 199 194 193 190 187 185 183 181
115 177 194 220 185 143 188 197 200 203 225 216 230 254 247 199 229 265 276 250 218 214 182 189 193 201 200 199 197 197 199 200 200 199 195 198 199 197 195 193 191 189 187 185
152 243 207 217 150 165 189 199 195 205 227 205 248 240 259 239 228 243 282 199 203 206 203 204 205 206 204 202 202 200 199 201 200 193 193 196 197 197 197 195 194 192 191 190
173 232 195 260 234 202 238 232 218 217 232 230 248 253 256 197 232 240 245 248 237 225 225 222 207 199 204 203 202 197 197 198 197 189 190 192 193 194 198 198 196 195 194 194
188 210 202 243 221 172 224 233 213 217 229 219 231 244 262 260 235 247 255 259 242 238 227 219 209 205 201 202 199 198 194 192 193 190 189 192 192 191 196 197 197 197 198 198
227 253 245 251 152 222 244 300 232 229 239 227 250 255 265 262 257 261 191 222 246 245 229 224 212 206 207 199 197 193 191 190 189 186 189 193 194 191 195 198 199 199 202 201
181 180 232 231 243 262 273 189 146 170 245 234 230 246 258 268 342 282 209 234 258 258 257 237 220 210 193 190 188 187 186 186 186 188 191 192 193 188 194 196 198 202 203 204
211 210 210 187 224 233 250 159 131 105 252 154 195 230 244 115 241 274 343 332 308 304 279 249 215 193 185 184 184 175 178 182 191 193 188 189 197 196 195 199 200 203 206 209
170 200 218 230 244 246 242 147 146 137 242 193 161 181 174 194 217 224 303 313 305 302 313 261 183 175 179 178 179 169 176 190 191 192 193 194 199 199 202 200 201 203 209 214
174 180 191 214 233 244 166 93 175 187 146 149 196 199 221 255 285 301 306 308 342 12 57 145 138 146 171 177 175 166 172 182 184 185 183 185 190 191 199 200 204 216 214 211
199 199 188 194 203 261 206 203 151 170 165 181 163 169 198 239 261 318 319 336 355 2 82 141 143 140 160 174 178 155 174 181 183 181 187 198 199 202 210 217 207 203 213 214
233 167 195 102 246 223 194 224 227 207 193 178 177 171 155 223 278 268 337 346 5 19 86 144 143 136 149 171 178 181 179 188 192 196 196 198 199 199 204 205 205 202 208 215
189 138 170 256 278 309 246 229 210 204 188 200 117 152 188 203 228 193 197 150 133 96 102 149 145 138 133 157 170 179 189 190 186 187 189 187 187 191 194 199 209 218 227 231
192 172 181 218 208 114 272 286 193 187 190 196 167 198 186 179 217 147 128 121 116 105 123 130 132 129 123 130 136 157 179 187 186 182 186 191 193 195 197 195 188 202 210 210